CAPE
37 17 9 17 45 44 9 2 32 12 3 1 0 0 0 0 0 0 0 56 87 158 114 17 12 17 29 57 213 254 94 21 10 17 81 0 0 0 0 23 4 137 167 853 1352
26 41 28 15 34 42 15 0 26 7 3 0 0 0 0 0 0 10 121 201 120 181 73 33 36 74 38 23 189 138 26 0 11 120 26 0 0 0 0 35 24 159 709 1236 1477
21 43 43 19 18 33 34 13 20 9 1 1 0 0 0 0 6 41 251 299 302 201 123 32 55 89 80 58 137 112 15 1 0 11 27 1 3 0 0 5 1 0 466 721 1371
17 41 40 36 17 13 39 32 6 6 0 0 0 0 1 34 28 58 73 135 219 197 106 47 63 83 82 54 55 90 0 28 9 35 39 11 0 0 11 0 0 0 279 676 1379
12 42 39 43 17 4 32 42 20 1 2 0 0 0 0 35 30 0 12 25 159 148 62 56 82 92 59 0 19 23 35 24 2 52 5 0 2 2 0 0 0 4 428 655 1105
12 40 29 44 28 9 24 28 35 0 0 2 0 0 13 47 0 20 0 44 164 149 58 58 67 86 76 11 21 47 65 85 81 6 25 50 17 1 0 0 0 0 215 589 700
19 25 37 43 39 10 13 31 28 12 0 0 47 23 7 47 12 34 29 156 40 118 37 39 40 1 20 48 13 80 90 75 83 34 16 59 53 0 0 0 0 0 0 210 556
13 20 37 28 33 18 7 17 20 25 0 0 24 13 10 6 27 9 54 103 13 6 6 24 11 1 13 15 35 101 90 89 102 47 37 60 9 1 5 0 0 0 0 4 0
11 24 25 29 24 21 11 12 17 1 0 0 0 40 10 29 52 1 27 31 6 0 5 24 1 12 9 8 45 59 32 40 77 101 74 90 27 50 8 5 1 0 0 0 0
11 17 22 19 24 21 22 4 4 0 0 0 0 1 8 26 13 3 23 7 31 1 25 12 5 3 9 26 28 21 36 20 7 45 65 58 31 32 5 4 0 0 0 0 0
11 14 23 17 21 24 13 2 1 0 0 1 0 0 20 2 0 41 8 2 15 2 5 14 4 5 1 0 0 3 0 0 10 55 50 38 36 10 21 0 0 0 0 0 0
12 18 18 21 22 14 3 3 0 0 2 0 0 1 0 0 0 47 24 22 18 8 6 19 10 0 29 28 11 38 9 13 60 57 42 40 13 1 0 0 0 0 0 0 0
11 17 13 20 11 1 3 1 0 0 1 1 2 2 2 0 3 9 0 13 18 6 11 12 11 0 4 0 0 0 0 2 13 9 2 10 0 0 0 0 0 0 0 0 0
10 9 13 10 0 9 1 0 0 0 19 6 11 8 5 4 15 4 10 12 6 17 4 13 4 2 2 10 36 16 42 25 23 0 6 7 0 0 0 0 0 0 0 0 0
6 4 15 1 4 3 0 0 0 0 0 2 9 0 2 16 0 11 0 19 4 0 1 20 11 2 18 3 29 4 28 60 35 42 27 0 0 0 0 0 0 0 0 0 0
3 12 2 0 13 2 0 0 1 5 0 1 4 4 5 8 11 8 23 1 12 4 10 8 1 0 0 18 3 2 16 3 0 7 0 0 0 0 0 0 0 0 0 0 0
0 0 0 1 10 6 1 2 4 3 0 0 0 7 2 5 2 4 6 12 11 7 3 5 3 0 0 15 11 11 1 0 0 0 0 0 0 0 0 0 0 0 0 0 0
0 0 0 2 0 4 7 3 1 6 21 0 1 1 4 2 0 0 1 4 0 2 0 1 0 2 8 33 14 7 11 8 0 0 0 0 0 0 0 0 0 0 0 0 0
0 4 13 2 0 0 2 0 0 0 0 2 1 3 3 0 0 0 0 0 0 1 6 2 5 1 3 29 29 11 0 0 1 0 0 0 0 0 0 0 0 0 0 0 0
3 10 10 0 0 6 6 0 0 0 7 0 10 2 0 0 0 0 0 0 0 0 0 0 1 1 32 24 11 23 4 0 0 0 0 0 0 0 0 0 0 0 0 0 0
1 10 1 0 7 3 1 1 0 0 0 2 9 2 0 0 0 0 2 0 0 0 0 0 0 7 22 0 5 16 3 2 0 0 0 0 0 0 0 0 0 0 0 0 0
6 5 0 2 15 1 3 0 0 0 0 0 0 5 4 0 0 8 0 0 0 0 0 0 0 1 0 0 1 1 7 2 3 0 0 0 0 0 0 0 0 0 0 0 0
4 1 0 2 4 1 0 0 2 0 0 0 0 0 0 4 7 0 0 0 0 0 0 0 6 6 1 0 0 0 0 8 0 0 0 0 0 0 0 0 0 0 0 0 0
0 3 3 0 0 0 3 1 0 0 0 0 0 0 0 0 0 1 0 0 0 0 0 0 3 2 0 0 0 0 0 0 1 0 0 0 0 0 0 0 0 0 0 0 0
0 0 0 3 0 0 4 1 4 0 0 0 0 0 0 0 0 3 0 0 0 0 0 0 0 0 0 0 0 0 0 0 0 0 0 0 0 0 0 0 0 0 0 0 0
0 0 0 0 0 0 0 0 3 0 0 0 1 0 0 0 0 2 0 0 0 0 0 0 0 0 0 0 0 0 0 0 0 0 0 0 0 0 0 0 0 0 0 0 0
0 0 0 0 0 0 0 1 1 3 0 0 0 0 0 0 0 0 0 0 0 0 0 0 0 0 0 0 0 0 0 0 0 0 0 0 0 0 0 0 0 0 0 0 0
CIN
-0 -0 -0 -0 -0 -0 -0 -0 -0 -0 -0 -0 -0 -0 -0 -0 -0 -0 -0 -9 -0 -2 -7 -8 -0 -2 -33 -13 -7 -12 -2 -3 -21 -16 -58 -0 -0 -0 -0 -45 -71 -164 -204 -82 -52
-0 -0 -0 -0 -0 -0 -0 -0 -0 -0 -0 -0 -0 -0 -0 -0 -0 -0 -1 -2 -3 -0 -4 -12 -0 -38 -40 -58 -2 -3 -5 -0 -97 -23 -47 -0 -0 -0 -0 -104 -139 -183 -62 -34 -42
-0 -0 -0 -0 -0 -0 -0 -0 -0 -0 -0 -0 -0 -0 -0 -0 -0 -0 -10 -0 -1 -0 -2 -29 -14 -6 -13 -24 -2 -1 -4 -2 -0 -82 -41 -33 -48 -0 -0 -74 -23 -0 -110 -90 -11
-0 -0 -0 -0 -0 -0 -0 -0 -1 -0 -0 -0 -0 -0 -4 -2 -0 -3 -7 -12 -0 -0 -0 -14 -4 -1 -3 -14 -23 -3 -3 -40 -127 -123 -50 -38 -8 -0 -71 -0 -0 -1 -172 -99 -2
-0 -0 -0 -0 -3 -0 -0 -0 -0 -0 -0 -0 -0 -0 -0 -8 -1 -0 -29 -11 -4 -2 -12 -0 -6 -0 -1 -0 -47 -7 -8 -30 -23 -19 -98 -0 -6 -44 -0 -0 -0 -10 -87 -90 -24
-0 -0 -0 -0 -3 -2 -0 -0 -0 -0 -0 -0 -0 -0 -22 -0 -0 -30 -1 -0 -11 -2 -0 -2 -7 -17 -6 -20 -21 -6 -23 -11 -27 -25 -16 -8 -17 -21 -0 -0 -0 -0 -115 -56 -55
-0 -0 -0 -1 -0 -2 -0 -0 -0 -1 -0 -0 -0 -14 -22 -2 -12 -16 -8 -8 -38 -9 -0 -1 -2 -0 -13 -13 -30 -2 -5 -2 -49 -81 -17 -24 -23 -0 -0 -0 -0 -0 -0 -99 -45
-0 -0 -0 -1 -2 -2 -0 -0 -0 -0 -0 -0 -16 -15 -14 -40 -26 -39 -8 -6 -18 -23 -13 -1 -1 -0 -26 -44 -14 -1 -7 -12 -8 -21 -6 -10 -22 -15 -29 -11 -0 -0 -0 -205 -0
-0 -0 -2 -1 -2 -1 -2 -0 -0 -0 -0 -0 -0 -0 -1 -43 -18 -25 -10 -0 -4 -0 -25 -0 -19 -0 -38 -48 -4 -10 -3 -6 -9 -13 -15 -22 -19 -7 -7 -23 -29 -0 -0 -0 -0
-0 -0 -1 -3 -0 -0 -3 -6 -3 -0 -0 -0 -0 -1 -9 -13 -73 -70 -9 -4 -1 -28 -1 -0 -0 -0 -2 -2 -1 -6 -4 -17 -9 -44 -8 -18 -16 -19 -79 -39 -0 -0 -0 -0 -0
-1 -3 -3 -1 -1 -3 -3 -10 -2 -0 -0 -0 -0 -0 -0 -1 -52 -10 -19 -0 -6 -28 -0 -0 -0 -0 -0 -0 -0 -20 -0 -0 -4 -28 -3 -6 -14 -17 -47 -0 -0 -0 -0 -0 -0
-0 -3 -2 -0 -2 -8 -13 -3 -0 -0 -2 -0 -0 -0 -0 -0 -0 -6 -8 -1 -3 -0 -0 -0 -0 -0 -23 -4 -3 -1 -20 -2 -46 -29 -8 -8 -6 -17 -0 -0 -0 -0 -0 -0 -0
-1 -1 -1 -2 -5 -4 -7 -0 -0 -0 -3 -1 -3 -0 -0 -0 -0 -2 -0 -2 -2 -0 -0 -0 -0 -0 -13 -0 -0 -0 -0 -0 -10 -2 -2 -4 -1 -0 -0 -0 -0 -0 -0 -0 -0
-1 -0 -2 -3 -0 -5 -1 -0 -0 -0 -0 -0 -1 -3 -0 -0 -0 -0 -3 -1 -0 -0 -0 -0 -0 -0 -33 -45 -15 -19 -2 -16 -2 -0 -57 -68 -0 -0 -0 -0 -0 -0 -0 -0 -0
-0 -0 -1 -0 -11 -2 -1 -0 -0 -0 -0 -1 -0 -0 -1 -1 -0 -3 -0 -2 -0 -0 -0 -0 -0 -0 -0 -18 -12 -10 -14 -9 -33 -40 -11 -0 -0 -0 -0 -0 -0 -0 -0 -0 -0
-0 -1 -2 -0 -4 -1 -0 -0 -2 -0 -0 -0 -2 -0 -0 -5 -0 -4 -0 -0 -1 -0 -0 -0 -4 -0 -0 -11 -18 -0 -31 -12 -0 -35 -0 -3 -0 -0 -0 -0 -0 -0 -0 -0 -0
-0 -0 -0 -0 -0 -4 -3 -4 -0 -2 -1 -0 -1 -2 -5 -14 -0 -5 -4 -3 -0 -0 -0 -0 -0 -0 -0 -22 -60 -37 -29 -0 -15 -0 -0 -0 -0 -0 -0 -0 -0 -0 -0 -0 -0
-0 -0 -0 -0 -1 -7 -2 -0 -1 -0 -0 -0 -0 -0 -0 -0 -0 -0 -11 -0 -0 -4 -0 -0 -0 -0 -25 -19 -22 -34 -26 -38 -0 -0 -0 -0 -0 -0 -0 -0 -0 -0 -0 -0 -0
-0 -11 -1 -49 -0 -9 -0 -1 -0 -0 -1 -0 -0 -0 -0 -0 -0 -0 -0 -0 -24 -2 -0 -0 -0 -0 -0 -9 -26 -15 -0 -0 -3 -0 -0 -0 -0 -0 -0 -0 -0 -0 -0 -0 -0
-1 -3 -5 -17 -14 -6 -0 -0 -0 -0 -0 -0 -0 -16 -0 -0 -0 -0 -0 -0 -0 -0 -0 -0 -0 -0 -2 -17 -32 -28 -16 -2 -0 -0 -0 -0 -0 -0 -0 -0 -0 -0 -0 -0 -0
-12 -1 -1 -14 -14 -1 -8 -1 -0 -0 -0 -0 -1 -6 -0 -0 -0 -0 -2 -0 -0 -0 -0 -0 -0 -0 -1 -0 -11 -10 -19 -14 -0 -0 -0 -0 -0 -0 -0 -0 -0 -0 -0 -0 -0
-4 -1 -0 -29 -0 -1 -5 -0 -0 -0 -0 -0 -6 -3 -0 -0 -0 -0 -1 -0 -0 -0 -0 -0 -0 -0 -0 -0 -1 -1 -16 -5 -15 -0 -0 -0 -0 -0 -0 -0 -0 -0 -0 -0 -0
-2 -0 -0 -17 -0 -7 -0 -0 -0 -0 -0 -0 -0 -0 -0 -1 -2 -0 -0 -0 -0 -0 -0 -0 -9 -3 -3 -0 -0 -0 -0 -25 -0 -0 -0 -0 -0 -0 -0 -0 -0 -0 -0 -0 -0
-0 -0 -0 -0 -0 -0 -1 -0 -0 -0 -0 -0 -0 -0 -0 -0 -0 -6 -0 -0 -0 -0 -0 -0 -2 -4 -0 -0 -0 -0 -0 -0 -8 -0 -0 -0 -0 -0 -0 -0 -0 -0 -0 -0 -0
-0 -0 -0 -0 -0 -0 -5 -1 -0 -0 -0 -0 -0 -0 -0 -0 -0 -1 -0 -0 -0 -0 -0 -0 -0 -0 -0 -0 -0 -0 -0 -0 -2 -0 -0 -0 -0 -0 -0 -0 -0 -0 -0 -0 -0
-0 -0 -0 -0 -0 -0 -0 -0 -0 -0 -0 -0 -0 -0 -0 -0 -0 -1 -1 -0 -0 -0 -0 -0 -0 -0 -0 -0 -0 -0 -0 -0 -0 -0 -0 -0 -0 -0 -0 -0 -0 -0 -0 -0 -0
-0 -0 -0 -0 -0 -0 -0 -1 -1 -1 -0 -0 -0 -0 -0 -0 -0 -0 -0 -0 -0 -0 -0 -0 -0 -0 -0 -0 -0 -0 -0 -0 -0 -0 -0 -0 -0 -0 -0 -0 -0 -0 -0 -0 -0
Wind_Speed
15 13 11 15 15 13 12 14 14 12 12 10 8 7 7 5 6 9 13 12 8 10 3 12 14 13 12 8 4 2 4 10 19 20 6 12 5 3 5 1 6 6 4 4 7
16 9 12 12 15 14 11 12 13 11 11 10 8 7 5 5 10 14 14 8 6 9 5 12 14 13 10 13 8 8 6 11 10 5 9 4 6 6 1 5 6 12 10 10 7
15 13 12 11 13 14 11 10 11 9 10 10 8 7 6 8 11 3 8 9 8 8 6 11 15 15 14 13 11 8 12 14 12 14 6 6 4 4 4 5 7 6 10 6 9
14 15 12 11 11 14 13 11 10 9 9 9 8 7 7 8 5 6 1 9 9 9 9 8 11 7 13 13 16 7 15 13 12 8 4 9 9 4 4 6 5 6 9 6 9
14 14 11 12 11 13 14 12 8 8 8 8 7 6 7 7 6 4 5 8 11 9 12 14 15 14 13 15 16 17 10 19 13 1 14 17 8 7 8 8 3 6 10 8 7
15 13 11 11 10 11 13 11 11 8 7 7 6 8 9 12 5 9 7 5 12 4 9 13 5 6 9 13 20 15 17 16 14 8 14 17 5 11 8 9 7 4 9 8 8
13 14 11 12 10 10 13 12 11 8 7 8 7 8 11 8 5 5 3 10 9 8 7 5 6 4 9 10 16 7 19 11 11 14 8 9 7 5 10 8 7 6 8 9 9
12 13 11 11 10 10 11 12 10 9 8 8 8 10 7 3 4 7 10 9 5 7 6 8 4 4 6 14 13 9 14 14 17 21 10 6 11 9 10 9 7 2 8 7 8
11 11 10 10 9 10 10 10 11 7 7 7 7 6 5 3 1 7 6 6 5 4 7 7 5 3 8 8 10 7 11 14 11 10 7 7 2 10 11 10 6 3 3 7 7
11 9 10 9 10 9 9 6 2 4 7 8 7 5 8 3 5 7 1 3 4 4 6 5 4 2 7 10 11 12 10 13 8 10 11 7 6 6 2 3 7 7 6 4 8
10 9 9 9 11 8 5 3 3 3 4 4 3 7 4 9 4 0 5 4 4 4 1 5 3 7 16 18 12 12 10 13 11 10 11 8 9 7 7 5 7 7 8 6 6
9 9 8 10 10 2 2 4 7 4 3 1 3 4 1 3 6 3 11 3 1 3 7 5 2 3 3 11 16 14 16 7 8 4 9 11 11 12 12 13 13 13 16 14 11
8 8 7 9 2 2 6 1 4 5 4 3 2 4 2 4 7 7 10 3 5 2 1 4 3 3 4 3 12 17 15 13 10 13 6 5 10 11 8 9 12 11 11 13 18
7 7 7 2 1 3 1 5 1 3 2 4 2 0 3 1 2 2 3 2 3 3 5 6 1 5 7 13 8 9 12 12 14 7 4 7 4 13 14 10 10 9 10 9 13
7 7 7 6 5 1 3 3 0 2 2 2 3 1 3 1 2 4 2 5 5 2 2 6 8 4 11 6 8 4 8 8 11 9 6 5 2 7 12 11 12 11 9 9 9
7 6 5 3 4 3 4 1 2 2 3 4 4 4 2 3 5 1 0 2 3 3 6 5 4 6 9 6 6 9 11 4 5 1 1 7 6 6 6 6 6 9 11 11 10
5 5 6 1 2 3 2 1 1 2 1 3 3 4 5 5 4 3 2 3 3 1 4 5 6 8 5 3 5 2 6 4 3 3 3 1 5 9 6 6 5 1 4 7 11
7 10 2 5 2 2 2 2 1 4 1 2 1 3 5 4 2 5 5 5 5 4 4 3 1 3 2 4 2 5 5 4 4 4 5 2 3 5 3 8 7 5 4 5 7
8 4 3 2 1 3 1 1 3 3 4 6 3 1 2 2 0 2 3 5 3 3 2 4 3 4 2 5 5 6 3 1 3 2 6 5 6 2 5 4 6 7 4 4 3
3 4 4 1 1 3 2 1 1 3 4 7 3 6 5 5 4 2 2 3 2 3 3 2 5 2 3 5 3 3 1 1 3 2 1 3 3 4 7 6 4 4 3 4 1
3 3 2 1 3 3 2 2 3 5 1 3 2 1 7 4 3 2 5 3 2 1 7 4 4 2 2 2 3 2 0 1 2 3 1 1 3 8 10 7 7 6 5 3 0
3 3 2 2 2 2 2 4 2 5 4 3 3 2 2 4 6 0 3 5 5 4 2 2 4 3 1 5 3 4 4 4 4 4 1 1 5 8 9 6 7 6 5 4 3
4 3 2 1 3 4 4 6 2 4 5 4 4 2 3 2 2 4 3 6 6 3 3 3 2 3 1 2 5 5 6 6 2 4 3 2 5 3 7 6 5 5 4 6 5
4 4 2 2 3 5 6 6 6 1 1 2 1 3 4 3 1 4 5 2 6 1 2 3 2 2 3 1 2 6 7 7 6 3 5 7 7 3 4 5 7 7 2 4 7
2 5 7 5 6 7 1 9 9 5 4 4 2 5 2 3 4 4 7 4 4 4 2 2 2 3 3 3 3 2 4 8 7 10 6 7 13 10 7 4 6 7 5 4 1
3 3 2 2 2 9 4 6 9 4 1 4 4 1 4 3 6 2 5 6 5 6 2 3 2 3 4 7 6 6 7 9 10 13 13 16 18 15 14 13 9 7 4 5 5
1 1 1 4 5 5 7 8 9 7 1 5 3 3 6 4 6 6 5 5 5 4 6 4 3 2 2 2 5 7 14 14 9 8 9 15 13 10 8 6 5 6 6 7 7
Wind_Direction
329 329 342 337 341 343 343 332 341 343 342 341 330 321 305 283 278 257 258 254 300 316 297 278 230 224 252 230 190 235 226 218 229 219 286 114 110 67 331 5 52 67 52 103 126
334 341 336 345 336 336 339 339 341 344 344 344 342 333 317 294 279 267 273 332 289 298 286 273 220 215 227 211 195 206 191 220 244 248 170 174 149 125 254 127 128 106 82 124 112
337 341 338 341 334 333 333 338 335 340 341 342 342 334 314 300 282 294 23 332 302 285 238 278 282 212 212 228 194 178 222 234 266 280 252 159 103 126 265 112 37 59 116 106 139
331 331 337 337 340 330 330 327 328 335 335 334 335 326 313 280 298 102 131 268 291 266 239 259 250 224 210 219 216 210 210 236 243 342 292 166 133 110 39 85 100 84 101 116 134
322 333 339 330 331 326 329 327 318 322 328 335 337 333 309 248 281 33 327 303 318 217 205 219 229 212 213 206 224 206 196 210 221 153 249 251 158 132 117 116 84 95 122 112 126
326 331 334 326 321 332 327 320 315 301 313 321 329 324 264 287 346 355 333 1 355 190 204 221 260 252 255 207 218 184 225 201 187 182 257 210 244 136 155 149 144 94 119 129 134
321 331 328 331 323 332 323 326 320 285 295 305 321 293 289 282 350 331 319 73 58 55 257 223 36 354 331 235 214 217 196 226 141 169 255 153 206 218 143 164 146 157 114 136 165
318 327 328 330 323 327 321 319 310 288 283 292 301 293 274 70 329 1 337 116 73 79 7 353 353 313 256 307 178 169 190 208 168 162 194 270 205 188 144 156 160 241 123 121 128
314 320 327 331 324 325 319 311 302 267 263 273 267 244 281 168 7 338 353 2 94 64 55 315 56 292 304 240 177 188 188 193 166 189 169 202 232 186 178 162 170 170 276 144 109
310 321 327 328 322 318 318 301 320 248 232 240 261 266 308 357 1 314 302 354 61 42 81 332 62 8 259 212 178 174 192 189 174 183 244 191 245 105 297 332 196 197 213 246 145
309 319 330 327 319 308 299 268 214 220 238 315 311 313 339 352 241 306 359 314 135 62 116 182 141 213 207 208 177 157 182 181 171 155 185 210 217 228 186 210 256 260 272 280 205
309 319 335 326 320 317 229 239 56 351 267 119 289 259 347 317 281 83 349 332 89 9 312 180 203 230 293 216 200 179 183 229 85 134 179 197 222 209 207 193 213 214 229 239 252
307 315 330 328 316 242 238 329 21 315 256 116 8 327 1 314 352 6 351 315 82 308 174 63 59 336 139 231 187 197 198 151 156 173 213 221 226 226 226 219 198 216 226 227 226
298 309 316 343 243 221 250 87 282 324 278 19 158 55 247 226 98 4 302 340 76 347 1 62 309 254 149 213 182 127 150 164 134 136 170 216 255 208 205 207 218 213 222 234 219
298 299 295 220 313 246 88 126 274 232 7 52 13 9 265 358 130 33 344 312 46 76 314 45 346 48 152 140 90 350 81 119 136 179 117 188 264 274 183 207 209 210 216 223 234
305 296 166 179 245 71 111 157 225 236 32 358 312 302 169 91 76 357 155 176 24 318 102 53 360 14 350 29 54 224 125 88 61 358 356 190 188 275 174 183 198 196 199 205 215
303 190 184 151 73 141 143 233 205 7 236 22 19 298 75 54 63 147 155 143 103 64 45 31 3 343 323 339 333 199 128 74 36 22 232 317 201 252 97 148 125 63 297 228 195
154 157 221 46 82 200 219 211 65 97 72 82 83 52 50 14 85 29 111 73 70 46 91 76 95 339 49 307 334 217 187 149 174 177 199 332 238 240 48 97 103 72 327 341 342
155 208 149 57 68 287 250 139 129 133 181 152 198 218 116 142 101 161 80 118 201 210 92 133 76 289 44 321 330 256 264 324 343 287 91 195 252 332 159 189 164 168 176 256 265
201 176 92 91 274 267 247 55 153 189 132 173 282 193 119 127 159 245 130 52 89 338 320 106 96 303 88 287 247 325 202 152 348 81 224 207 255 211 130 106 107 136 180 199 201
247 147 93 255 252 240 203 133 147 172 269 248 336 134 126 141 117 196 83 120 25 163 306 331 98 99 151 236 233 185 213 288 2 73 298 135 283 123 119 118 108 81 65 48 332
196 118 86 252 205 259 225 138 343 151 178 253 285 293 177 155 173 266 70 78 155 171 194 51 101 95 188 172 243 273 283 242 120 238 270 158 278 118 117 122 116 123 103 75 20
139 110 75 299 198 211 132 133 196 164 184 188 210 322 338 227 70 96 83 112 169 168 27 354 133 106 327 231 228 230 228 251 52 49 197 149 258 128 144 151 201 136 171 150 134
146 130 132 216 276 280 160 153 155 336 281 264 4 250 206 165 214 135 115 150 164 160 50 342 246 213 162 204 202 194 223 228 143 136 209 211 270 230 208 213 190 208 278 25 168
211 149 172 177 221 228 189 162 153 165 254 253 202 277 255 141 160 121 95 125 174 160 231 256 206 99 300 300 79 301 257 231 197 217 198 229 243 255 261 243 237 235 137 128 340
173 156 159 61 136 198 172 224 179 117 218 187 245 223 248 360 28 97 153 187 177 163 238 194 307 78 290 213 205 248 245 241 245 240 235 246 262 275 293 304 302 294 315 221 225
61 41 321 126 186 197 179 179 185 128 111 6 17 245 92 58 12 359 342 347 338 150 212 174 158 132 285 15 307 286 238 225 228 231 226 238 246 266 274 302 329 335 316 286 258